{"data":{"norad_id":66086,"epoch":"2026-09-20T07:27:21.114720Z","epoch_age_seconds":119353,"freshness":"FRESH","line1":"1 66086U 25236A   26263.31066105  .00007529  00000+0  23385-3 0  9991","line2":"2 66086  53.1590 278.3462 0001086  82.1783 277.9343 15.34383478 52768","mean_motion":15.34383478,"eccentricity":0.0001086,"inclination_deg":53.159,"raan_deg":278.3462,"arg_perigee_deg":82.1783,"mean_anomaly_deg":277.9343,"bstar":0.00023385,"rev_number":5276,"period_min":93.848768619236,"perigee_km":462.00942693046,"apogee_km":463.49526809674,"semimajor_km":6840.8893475136,"source":"CELESTRAK","updated_at":"2026-09-21T09:00:35.799941Z"}}